Regional Weather Roundup
Issued by NWS

Home | Current Version | Previous Version | Text Only | Print | Product List | Glossary Off
Versions: 1 2 3 4 5 6 7 8 9 10 11 12 13 14 15 16 17 18 19 20 21 22 23 24 25 26 27 28 29 30 31 32 33 34 35 36 37 38 39 40 41 42 43 44 45 46 47 48 49 50

000
ASUS43 KMPX 220401
RWRMN
WEATHER ROUNDUP FOR MINNESOTA
NATIONAL WEATHER SERVICE TWIN CITIES/CHANHASSEN MN
1100 PM CDT THU AUG 21 2014


NOTE: "FAIR" INDICATES FEW OR NO CLOUDS BELOW 12,000 FEET WITH NO
SIGNIFICANT WEATHER AND/OR OBSTRUCTIONS TO VISIBILITY. N/A MEANS
CURRENT SKY AND/OR WEATHER CONDITIONS ARE NOT AVAILABLE.

MNZ060>063-068>070-220500-
   Twin Cities Metro

CITY           SKY/WX    TMP DP  RH WIND       PRES   REMARKS
TWIN CITIES    PTCLDY    76  73  91 NW6       29.83R
ST PAUL        PTCLDY    75  73  93 NW8       29.82S
CRYSTAL        CLEAR     74  70  87 N7        29.82S
BLAINE         PTCLDY    73  73 100 N5        29.84S
LAKEVILLE      CLEAR     75  73  94 CALM      29.83R
EDEN PRAIRIE   MOCLDY    75  72  90 CALM      29.83R
SOUTH ST PAUL  CLEAR     77  74  92 CALM      29.82S
LAKE ELMO      FAIR      73  72  94 CALM      29.84S
$$
MNZ001>005-007-008-013>017-022>024-027-028-220500-
   Northwest Minnesota

CITY           SKY/WX    TMP DP  RH WIND       PRES   REMARKS
BEMIDJI        CLOUDY    67  65  94 SE3       29.90S
HALLOCK        DRIZZLE   68  66  94 NE5       29.89R
ROSEAU         PTCLDY    66  61  82 CALM      29.91R
WARROAD        CLOUDY    66  63  88 E5        29.91S
THIEF RVR FALL CLOUDY    70  68  94 CALM      29.89S
CROOKSTON      RAIN      72  70  94 CALM      29.88S
FOSSTON        MOCLDY    66  63  88 CALM      29.90S
DETROIT LAKES  MOCLDY    70  68  94 NE3       29.90F
MOORHEAD       CLEAR     70  70 100 CALM      29.88R
PARK RAPIDS    CLOUDY    69  66  90 SE5       29.90S
MAHNOMEN       CLOUDY    68  67  98 CALM      29.89R
$$
MNZ006-009>011-018-025>026-220500-
   North Central Minnesota

CITY           SKY/WX    TMP DP  RH WIND       PRES   REMARKS
BAUDETTE       CLOUDY    66  63  90 E5        29.91R
FLAG ISLAND    CLOUDY    66  64  94 CALM      29.91S
INTL FALLS     CLOUDY    65  60  84 E9        29.92F
WASKISH        CLOUDY    66  64  94 CALM      29.91R
BIG FORK       CLOUDY    68  63  83 CALM      29.92S
LONGVILLE      CLOUDY    66  64  94 CALM      29.89F
GRAND RAPIDS   CLOUDY    64  61  88 E5        29.91F
CRANE LAKE     CLOUDY    61  61 100 CALM      29.95F
ORR            CLOUDY    64  57  77 CALM      29.91F
COOK           CLOUDY    64  61  88 CALM      29.94S
WALKER         CLOUDY    68  65  93 CALM      29.90S
$$
MNZ012-019>021-037-220500-
   Northeast Minnesota

CITY           SKY/WX    TMP DP  RH WIND       PRES   REMARKS
DULUTH         DRIZZLE   63  60  90 E9        29.92S FOG
ELY            CLOUDY    63  57  82 CALM      29.95S
HIBBING        CLOUDY    66  60  81 E5        29.93S
EVELETH        CLOUDY    63  59  88 E3        29.94F
DULUTH HARBOR  LGT RAIN  63  61  94 NE21      29.91F
TWO HARBORS    CLOUDY    61  57  88 NE8       29.91S FOG
SILVER BAY     PTCLDY    61  61 100 NE8       29.92S
GRAND MARAIS     N/A     62  60  93 NE9       29.94F
G MARAIS ARPRT RAIN      59  55  88 NE8       29.98F
$$
MNZ029>031-032-039>041-046>048-054>057-064-220500-
   West Central Minnesota

CITY           SKY/WX    TMP DP  RH WIND       PRES   REMARKS
FERGUS FALLS   CLEAR     70  68  94 CALM      29.87R
MORRIS         CLEAR     70  68  94 CALM      29.87R FOG
ALEXANDRIA     MOCLDY    69  67  93 E3        29.90S
ELBOW LAKE     FAIR      70  68  95 SE5       29.87S
WADENA         DRIZZLE   68  66  94 CALM      29.89S
GLENWOOD       CLEAR     68  66  94 CALM      29.90R FOG
APPLETON       CLEAR     72  68  88 CALM      29.87R
BENSON         FOG       66  66 100 CALM      29.88R VSB 1/4
ORTONVILLE     CLEAR     72  68  88 CALM      29.88R
MADISON        CLEAR     73  72  94 CALM      29.88R FOG
WILLMAR        FOG       72  70  94 CALM      29.89R VSB 3/4
$$
MNZ033>034-036-042>043-049>051-058-059-220500-
   Central Minnesota

CITY           SKY/WX    TMP DP  RH WIND       PRES   REMARKS
ST CLOUD       CLOUDY    73  70  90 CALM      29.86S
SAUK CENTRE    CLOUDY    70  69  96 N3        29.89S
PAYNESVILLE    CLOUDY    66  66 100 CALM      29.88S
AITKIN         CLOUDY    66  61  82 CALM      29.89S HAZE
PINE RIVER     CLOUDY    66  66 100 E3        29.93S
BRAINERD       CLOUDY    66  65  96 NE3       29.90R
STAPLES        CLOUDY    66  66 100 CALM      29.90R FOG
LONG PRAIRIE   CLOUDY    70  68  94 CALM      29.90R FOG
LITTLE FALLS   CLOUDY    68  64  88 CALM      29.89R FOG
LITCHFIELD     CLEAR     72  72 100 CALM      29.87R FOG
BUFFALO        MOCLDY    73  70  91 N3        29.86S
MAPLE LAKE     CLOUDY    73  72  98 CALM      29.87R FOG
$$
MNZ037-044-045-052-053-220500-
   East Central Minnesota

CITY           SKY/WX    TMP DP  RH WIND       PRES   REMARKS
PRINCETON      CLOUDY    73  72  94 N3        29.86S
MORA           CLOUDY    64  63  94 CALM      29.89R
CAMBRIDGE      PTCLDY    73  64  73 CALM      29.84S
RUSH CITY      CLOUDY    72  69  93 NE3       29.86S
MOOSE LAKE     CLOUDY    61  59  94 NE7       29.88S
HINCKLEY       CLOUDY    64  63  94 N7        29.88S
CLOQUET        CLOUDY    63  61  94 E7        29.91F
MCGREGOR       CLOUDY    63  63 100 CALM      29.90S
$$
MNZ071>073-080-081-089-090-097-098-220500-
   Southwest Minnesota

CITY           SKY/WX    TMP DP  RH WIND       PRES   REMARKS
MONTEVIDEO     CLEAR     73  68  83 CALM      29.88R
GRANITE FALLS  CLEAR     70  70  99 CALM      29.89R
CANBY          CLEAR     70  68  92 W3        29.90R
MARSHALL       CLEAR     70  66  88 CALM      29.88
REDWOOD FALLS  CLEAR     74  72  93 W5        29.86R
OLIVIA         CLEAR     72  70  94 CALM      29.86S FOG
PIPESTONE      CLEAR     72  68  88 CALM      29.92R
WINDOM         CLEAR     72  66  83 W7        29.89R
WORTHINGTON    CLEAR     70  12  11 NW5       29.91S
JACKSON        CLEAR     70  64  83 E3        29.89R
TRACY          CLEAR     73  69  89 CALM      29.89S
SLAYTON        CLEAR     71  69  94 CALM      29.92R
$$
MNZ065>067-074>077-082>085-091>093-220500-
   South Central Minnesota

CITY           SKY/WX    TMP DP  RH WIND       PRES   REMARKS
MANKATO        PTCLDY    77  72  83 NW5       29.85R
NEW ULM        CLEAR     75  75 100 CALM      29.86R
ST JAMES       CLEAR     72  66  83 CALM      29.87S
FAIRMONT       PTCLDY    72  63  73 MISG      29.87S
GLENCOE        CLEAR     73  70  89 CALM      29.85R
FARIBAULT      CLEAR     79  72  78 CALM      29.85R
OWATONNA       CLEAR     77  72  83 S5        29.86R
WASECA         CLEAR     72  66  83 S3        29.88R
ALBERT LEA     PTCLDY    79  73  83 S3        29.87S
$$
MNZ078>079-086>088-094>096-220500-
   Southeast Minnesota

CITY           SKY/WX    TMP DP  RH WIND       PRES   REMARKS
ROCHESTER      MOCLDY    74  71  91 S7        29.88S
RED WING       MOCLDY    79  73  83 SE6       29.83R
STANTON        PTCLDY    77  72  84 S3        29.82S
DODGE CENTER   PTCLDY    75  72  88 S7        29.87S
WINONA         PTCLDY    73  70  88 CALM      29.87R
AUSTIN         CLOUDY    75  73  94 S3        29.88R
PRESTON        MOCLDY    73  73 100 S7        29.89S
$$
ABBREVIATIONS USED IN REMARKS
   TC - TEMPERATURES IN CELSIUS
  WCI - WIND CHILL INDEX
   HX - HEAT INDEX
  VSB - VISIBILITY
$$



USA.gov is the U.S. government's official web portal to all federal, state and local government web resources and services.